Location: Chevoux
(46.3801°N, 4.9476°E)
Time: 17:18:11
(UTC+00:00)

Cosmos 2292 Rocket - Pass Details

Date: 28 January 2021
Orbit: 380 x 1450 km, 83.0° (Epoch: 28 February)

Event Time Altitude Azimuth Distance (km) Brightness Sun altitude
Rises 18:11:36 0° 170° (S) 3,354 7.3 -16.0°
Reaches altitude 10° 18:14:22 10° 164° (SSE) 2,240 6.3 -16.5°
Maximum altitude 18:18:56 41° 95° (E) 876 3.8 -17.3°
Enters shadow 18:19:59 34° 58° (ENE) 956 4.0 -17.5°
